Погода в Гватемале

Гватемала     14°34′54″N   90°31′46″W
темп.,
°C
ветер,
м/с
пор.,
м/с
влажн.,
%
обл.,
%
осадки,
мм/ч
давл.,
гПа
погр.,
м
9 августа, вт
вт900:00+15с3699100 0.1 1017213
03:00+15с3796100 0.0 1016265
06:00+14с3696100 0.0 1017215
09:00+19с3575100 0.0 1017587
12:00+22св2371100 0.8 10151024
15:00+21св238891 3.1 1013652
18:00+18ссв249695 6.8 1015118
21:00+16с2497100 3.3 101792
10 августа, ср
ср1000:00+16с2398100 4.8 101796
03:00+16с259974 0.3 1016219
06:00+16с249969 0.3 1017159
09:00+21ссв227735 0.1 1016495
12:00+21вюв118998 2.0 1016482
15:00+18всв1194100 2.4 101528
18:00+17ссв1196100 5.3 101515
21:00+16ссв2297100 3.3 101754
11 августа, чт
чт1100:00+16св1197100 5.4 101830
03:00+16ссв129895 1.1 101669
06:00+16с129797 1.1 101749
09:00+20ссв127892 0.1 1017428
12:00+23св026694 0.7 10151343
15:00+21всв118979 3.1 1014479
18:00+18св119581 6.6 101527
21:00+16ссв1196100 3.4 101729
12 августа, пт
пт1200:00+16св1197100 5.3 101834
03:00+15с239772 0.3 101673
06:00+14с239889 0.3 101772
09:00+20с22769 0.0 1017603
12:00+23вюв017065 0.8 10151191
15:00+21вюв128664 3.4 1014709
18:00+18всв0097100 4.8 101536
21:00+15с2298100 1.2 101852
13 августа, сб
сб1300:00+15с239887 1.4 101875
03:00+15с249940 0.0 1017110
06:00+14с239857 0.0 1017111
09:00+21с137155 0.0 1017587
12:00+24с12505 0.0 10151660
15:00+24с125760 0.3 10131136
18:00+19ссв119198 1.1 101433
21:00+16с239626 0.5 101763